Regional Weather Roundup
Issued by NWS Cleveland, OH

Home | Current Version | Previous Version | Graphics & Text | Print | Product List | Glossary On
Versions: 1 2 3 4 5 6 7 8 9 10 11 12 13 14 15 16 17 18 19 20 21 22 23 24 25 26 27 28 29 30 31 32 33 34 35 36 37 38 39 40 41 42 43 44 45 46 47 48 49 50
000
ASUS41 KCLE 291212
RWRCLE
OHIO REGIONAL WEATHER ROUNDUP
NATIONAL WEATHER SERVICE WILMINGTON, OH
800 AM EDT THU JUN 29 2017

NOTE: "FAIR" INDICATES FEW OR NO CLOUDS BELOW 12,000 FEET WITH NO
SIGNIFICANT WEATHER AND/OR OBSTRUCTIONS TO VISIBILITY.

OHZ001>008-015>018-024>027-034-035-043-044-291300-
   NORTHWEST OHIO

CITY           SKY/WX    TMP DP  RH WIND       PRES   REMARKS
DEFIANCE       FAIR      70  58  65 S13G23    29.86F
FINDLAY        FAIR      73  57  57 S17G28    29.91F
TOLEDO EXPRESS FAIR      70  59  68 S14G20    29.86F
TOLEDO EXEC    FAIR      75  60  59 SW23G35   29.88F
LIMA           FAIR      70  59  68 S14       29.93F
$$

OHZ009>014-019>023-028>033-038-089-291300-
   NORTHEAST OHIO

CITY           SKY/WX    TMP DP  RH WIND       PRES   REMARKS
CLE-HOPKINS    PTSUNNY   72  55  55 S15G23    29.96F
CLE-LAKEFRONT  PTSUNNY   74  54  49 S20G31    29.93F
CUY CO. ARPT   MOSUNNY   72  50  46 SW12      29.96F
LORAIN-ELYRIA  FAIR      68  53  58 S13       29.95F
ASHTABULA      PTSUNNY   67  54  63 S15       29.99F
AKRON-CANTON   NOT AVBL
WOOSTER        FAIR      66  55  67 S12       30.02S
MANSFIELD      FAIR      71  57  61 S16       30.00S
YOUNGSTOWN     NOT AVBL
$$

OHZ042-051>053-060>062-070>072-077>081-291300-
  SOUTHWEST OHIO

CITY           SKY/WX    TMP DP  RH WIND       PRES   REMARKS
CINC-COVINGTON PTSUNNY   69  61  75 S9        30.03S
CINC-LUNKEN    FAIR      69  62  78 S5        30.03S
HAMILTON       FAIR      72  60  66 SW12G20   30.02S
DAYTON         PTSUNNY   68  55  63 S17       29.99F
WRIGHT-PAT AFB FAIR      71  58  64 S12       29.99F
DAYTON GENERAL FAIR      68  57  68 S10       30.00F
WILMINGTON     FAIR      69  60  73 S13       30.03S
$$

OHZ036-037-039>041-045>050-054>059-063>069-073>076-082>088-291300-
  CENTRAL AND SOUTHEAST OHIO

CITY           SKY/WX    TMP DP  RH WIND       PRES   REMARKS
COLUMBUS       PTSUNNY   68  57  68 S9        30.02S
OSU AIRPORT    FAIR      67  58  72 S10       30.01F
BOLTON FIELD   NOT AVBL
RICKENBACK AFB FAIR      67  58  72 S8        30.02F
NEWARK         FAIR      66  56  70 S3        30.03F
MARION         FAIR      69  55  60 S14       29.99S
LANCASTER      FAIR      68  58  70 S8        30.04F
ZANESVILLE     PTSUNNY   65  57  75 S7        30.06S
NEW PHILLY     FAIR      64  56  75 SE6       30.05F
$$



USA.gov is the U.S. government's official web portal to all federal, state and local government web resources and services.